Location: ?
(35.3544°N, 139.4507°E)
Time: 15:35:57
(UTC+00:00)

Okean 3 - Pass Details

Date: 03 August 2024
Orbit: 557 x 580 km, 82.5° (Epoch: 12 September)

Event Time Altitude Azimuth Distance (km) Brightness Sun altitude
Rises 17:39:47 0° 347° (NNW) 2,752 7.3 -23.6°
Reaches altitude 10° 17:42:01 10° 342° (NNW) 1,850 6.3 -23.2°
Enters shadow 17:44:52 38° 314° (NW) 857 4.2 -22.8°
